Location: Red Deer
(52.2681°N, 113.8112°W)
Time: 02:47:51
(UTC-06:00)

AO-73 - Visible Passes

Search period start: 16 May 2022 00:00
Search period end: 26 May 2022 00:00
Orbit: 578 x 659 km, 97.6° (Epoch: 15 May)

Date Brightness Start Highest point End Pass type
(mag) Time Alt. Az. Time Alt. Az. Time Alt. Az.
16 May ? 04:23:52 10° ENE 04:24:33 10° E 04:25:13 10° E visible
17 May ? 04:39:18 10° NE 04:41:44 15° E 04:44:09 10° SE visible
22 May ? 04:28:34 10° ENE 04:30:11 12° E 04:31:48 10° ESE visible
